RH
11 11 11 10 7 6 6 6 6 6 6 6 6 6 7 6 6 6 6 7 7 7 7 7 7 6 6 6 6 5 5 5 5 6 7 8 9 12 15 18 21 22 22 21 21 22 26 34 40 45 50 53 55 56 56 58 64 69 71 74 77 82 84 81 79 77 77 77 78 78 74 74 74 68 65 60 55 55 50 44 44 46 48 47 48 49 49 50
10 10 10 10 9 7 6 6 6 6 6 6 6 6 7 7 7 8 8 8 8 8 8 8 8 7 6 6 6 6 6 5 5 5 6 7 8 9 11 15 18 20 20 20 19 19 23 30 36 43 49 51 53 54 56 61 65 69 70 72 77 80 80 78 78 76 76 79 80 78 75 75 75 69 66 63 55 52 50 45 45 48 49 47 47 49 50 52
10 10 10 10 10 9 7 6 6 6 6 6 7 7 8 9 9 9 9 9 9 9 9 9 8 7 7 6 6 6 7 8 7 7 8 7 7 6 8 11 15 17 17 17 17 17 20 27 35 43 49 49 49 53 60 64 66 67 67 69 73 74 75 76 76 76 76 80 82 80 76 77 77 71 67 65 56 52 51 47 46 49 49 48 49 51 51 53
10 10 9 10 10 9 9 7 6 6 6 7 8 9 10 10 10 10 10 10 11 10 9 9 9 7 6 6 5 6 9 11 10 9 9 8 8 6 6 8 11 15 16 15 15 16 18 27 36 42 45 45 44 49 56 61 63 65 65 67 70 70 72 75 75 76 76 78 81 79 78 78 78 74 70 65 57 52 49 45 44 46 47 49 50 51 51 53
9 10 9 9 9 9 9 9 8 7 6 7 9 9 9 10 9 10 10 10 10 10 9 9 8 7 6 5 5 6 10 14 13 12 11 10 10 8 7 6 9 12 14 14 15 15 18 29 38 38 38 39 42 46 48 52 56 60 63 66 68 69 70 74 76 76 77 80 82 80 80 79 78 76 72 67 57 49 46 41 41 43 45 49 50 50 50 52
9 9 9 9 9 9 9 9 9 8 8 8 9 9 9 9 9 8 8 9 9 8 8 8 8 7 6 6 6 8 11 14 15 13 12 11 10 9 8 7 7 10 12 13 14 15 18 31 38 35 34 36 40 42 39 44 50 55 62 66 68 68 70 74 76 78 78 81 85 85 83 81 81 78 74 68 55 47 46 43 42 44 45 49 51 49 50 51
9 9 9 9 9 10 9 10 10 9 9 9 9 8 9 8 8 8 8 8 8 8 8 8 8 7 6 6 8 10 12 15 16 14 13 12 11 9 8 7 7 8 10 10 13 15 18 31 38 34 34 34 35 36 35 41 47 55 64 66 67 67 67 71 76 79 79 80 86 88 87 85 83 78 76 69 52 48 50 46 46 48 48 48 50 49 48 49
9 8 9 9 9 9 9 10 10 10 10 10 10 9 9 9 9 9 9 9 8 8 8 7 7 6 7 8 10 12 12 14 15 16 14 12 11 9 8 8 6 7 8 10 12 14 18 31 37 33 34 32 30 31 36 43 48 56 64 65 65 64 64 69 75 78 80 83 88 91 91 90 85 78 77 67 52 49 50 46 45 49 50 50 50 49 47 47
10 9 8 9 9 9 9 9 10 9 9 9 10 10 10 10 10 10 10 10 10 9 7 6 7 8 9 10 11 12 11 12 14 16 16 14 12 9 8 8 7 6 7 9 11 13 21 31 34 32 35 31 28 31 37 44 49 55 62 64 63 62 63 68 72 74 80 86 90 93 94 91 84 79 76 64 52 49 47 44 43 46 51 50 50 49 47 46
10 9 8 8 8 8 9 9 9 9 9 9 10 10 10 11 11 11 11 10 10 9 7 7 9 9 10 9 10 12 10 10 12 14 14 15 13 9 8 7 7 6 6 9 10 15 25 30 32 34 34 29 30 39 42 45 50 53 58 62 61 61 62 67 72 77 84 87 89 93 94 90 83 80 74 60 52 49 45 44 42 44 49 49 49 49 48 46
10 9 8 8 8 8 8 8 9 8 8 9 9 10 11 11 12 12 11 11 11 10 7 7 9 10 10 9 10 12 11 11 12 12 12 14 15 12 8 6 7 6 6 8 10 18 25 30 33 34 33 27 33 48 48 47 51 53 57 60 59 59 62 67 75 81 85 86 88 89 88 87 83 79 71 57 52 50 44 44 43 45 49 48 48 48 48 47
9 9 8 8 7 7 7 8 8 8 8 9 9 10 11 11 12 12 12 12 12 12 10 9 10 10 12 11 10 10 10 11 11 11 12 12 14 13 10 7 6 6 7 8 11 20 26 31 33 31 30 26 33 49 52 50 51 54 57 60 60 59 63 69 77 83 84 83 83 82 83 85 82 73 63 54 54 51 46 46 44 46 50 48 46 47 48 48
8 8 7 7 7 7 7 7 7 8 8 9 10 10 11 12 12 13 13 14 14 14 13 13 12 12 13 12 10 10 10 9 9 9 11 12 13 13 12 9 7 6 8 7 13 23 27 30 31 30 29 26 34 47 51 50 50 54 56 58 62 61 64 71 77 82 83 79 76 77 83 83 79 70 60 55 55 52 49 48 45 46 51 50 46 46 47 47
7 7 7 7 6 6 7 6 7 8 8 9 10 11 11 12 12 12 14 15 15 15 15 15 14 13 13 13 11 11 10 8 6 8 9 12 12 12 11 10 9 8 9 9 14 22 24 26 29 30 28 29 38 46 48 49 50 55 56 58 65 63 65 72 77 80 81 78 73 77 81 76 74 71 62 56 53 53 50 47 46 46 49 53 49 45 45 47
6 7 6 6 6 6 6 7 7 8 9 10 11 11 11 12 12 12 13 14 14 14 14 14 14 14 14 13 12 11 10 8 7 7 9 11 12 11 11 9 9 9 9 10 14 19 20 25 29 29 30 34 42 46 47 49 51 56 59 64 67 63 66 72 76 79 80 77 73 75 77 71 69 67 61 56 52 53 52 47 45 46 49 53 51 45 44 46
5 6 6 6 6 6 6 7 7 8 10 10 11 12 11 12 13 13 13 13 13 14 13 13 14 14 14 14 13 12 11 10 8 8 8 10 11 11 11 9 8 9 10 11 15 18 19 25 28 29 36 41 44 46 47 50 52 58 62 65 67 65 69 76 77 79 80 79 75 74 75 73 69 65 61 58 53 53 54 49 44 45 49 52 50 44 42 44
5 5 6 6 6 6 6 8 8 9 10 11 12 13 12 12 13 13 13 12 13 13 14 14 14 14 14 13 13 13 12 11 10 9 9 10 11 11 10 9 8 9 10 11 14 17 18 23 26 28 34 39 43 45 46 49 51 56 61 63 70 71 72 79 81 80 80 81 79 77 75 73 71 68 64 60 56 53 54 52 46 46 48 49 48 43 41 43
5 5 5 6 6 6 7 8 9 10 11 12 13 13 12 12 12 13 13 13 13 14 14 14 15 15 13 12 14 13 13 13 11 11 11 11 11 11 10 9 8 9 11 11 13 16 18 21 25 28 29 34 42 44 43 47 50 56 60 62 72 75 73 80 83 81 82 82 81 80 79 76 73 71 67 63 62 57 53 53 50 46 46 46 44 41 41 42
4 5 5 5 6 6 8 9 10 11 11 13 14 13 12 12 12 13 13 14 14 14 14 14 15 16 14 14 14 13 13 13 11 11 12 12 12 11 11 9 8 9 11 13 14 14 16 19 24 26 25 30 39 42 41 43 49 56 58 62 69 71 73 79 81 82 83 84 85 82 83 82 78 75 72 69 69 64 56 54 54 49 45 43 42 40 41 40
4 5 5 5 6 7 8 9 10 11 12 13 13 13 13 13 15 15 13 13 14 14 14 14 15 16 16 15 15 13 12 12 11 11 11 11 12 12 11 10 8 8 11 14 14 13 15 19 22 24 24 26 33 38 36 35 40 46 52 60 65 64 67 70 75 80 80 83 88 86 85 85 82 81 78 74 74 71 62 56 55 53 47 43 41 39 39 39
4 5 5 6 7 8 9 10 11 12 12 12 13 14 15 15 17 17 16 14 13 13 14 15 16 17 16 16 16 15 13 13 12 11 11 11 12 12 11 11 9 10 12 13 14 13 14 17 20 22 25 27 29 31 29 28 31 35 44 51 50 52 58 61 69 78 79 81 87 85 84 85 86 86 82 78 78 74 67 60 55 53 50 45 41 38 37 37
4 4 5 6 7 8 9 10 12 13 13 13 14 15 17 17 18 18 18 17 15 14 14 15 17 17 16 16 17 16 15 14 12 12 12 11 12 12 11 12 12 11 12 12 13 15 14 15 17 20 25 28 29 29 26 25 26 33 45 47 41 46 54 60 69 77 79 82 84 84 84 86 87 85 82 83 82 78 73 67 61 55 53 49 45 40 36 35
4 4 5 6 7 8 9 11 13 14 14 15 16 15 17 19 18 18 18 18 17 15 16 17 17 17 16 17 17 16 16 15 13 13 13 13 13 13 12 13 14 13 13 13 13 14 15 15 16 17 21 26 28 28 26 24 25 31 44 45 40 47 52 57 67 71 74 81 81 82 85 86 86 86 84 82 81 81 79 74 69 62 56 51 48 44 38 35
4 4 5 6 7 8 10 11 14 16 17 18 18 17 17 18 19 19 18 19 20 18 17 17 17 16 17 17 16 17 16 15 15 14 13 14 14 14 14 14 16 16 16 16 15 15 15 14 15 15 17 20 23 26 26 25 24 27 39 46 45 51 53 55 62 64 71 79 77 78 84 84 83 85 83 79 79 82 82 80 76 69 61 54 50 47 42 37
4 4 5 6 7 9 10 12 15 18 18 20 21 19 19 19 19 18 19 21 23 21 17 16 16 15 16 16 16 17 16 15 15 14 15 15 15 14 15 15 16 18 19 18 17 17 15 14 15 14 15 16 19 24 25 23 22 23 38 51 50 54 59 58 58 62 73 81 76 76 85 84 80 80 80 78 79 81 82 83 80 73 68 62 55 50 46 44
5 4 5 5 6 8 10 13 16 18 19 21 21 21 20 20 19 18 21 24 23 19 17 15 14 14 14 15 16 17 18 17 15 15 15 15 15 15 15 16 17 18 20 19 18 18 17 16 15 15 15 15 16 21 23 23 21 22 39 54 50 51 59 60 57 60 71 77 75 76 81 84 82 79 76 76 79 80 80 83 81 77 73 68 60 52 47 48
7 5 5 5 6 7 9 13 17 19 20 20 21 21 21 20 20 20 22 25 21 17 15 15 14 14 14 14 15 17 20 19 17 17 16 17 17 16 17 19 17 18 20 19 21 21 19 18 18 17 16 15 14 16 19 21 20 23 41 51 46 48 58 61 59 61 67 70 76 80 78 81 83 78 76 76 79 82 80 80 80 79 75 70 66 58 49 48
9 5 5 5 5 7 9 11 17 20 20 20 20 20 20 20 21 23 25 24 18 15 14 13 13 13 13 14 15 17 18 19 20 19 18 19 19 18 20 20 19 21 20 19 22 23 21 20 20 18 16 15 14 14 15 18 17 28 49 53 48 52 62 67 69 72 73 74 81 82 77 80 80 75 75 77 79 80 79 77 77 77 76 72 70 65 54 49
10 6 5 5 5 7 8 10 16 20 21 20 19 19 20 20 21 25 27 23 16 14 13 12 13 13 13 13 14 15 16 18 21 20 20 22 21 21 21 21 21 22 21 20 23 23 21 21 20 19 17 16 16 14 13 13 15 31 54 59 54 56 61 70 78 81 81 78 79 79 75 78 78 71 72 77 78 75 71 71 74 75 77 74 71 69 62 54
10 8 5 5 6 7 8 10 14 19 22 20 19 20 20 21 26 28 26 20 15 14 13 12 12 13 13 13 14 15 16 18 20 20 21 22 22 23 22 20 22 23 23 23 23 23 21 20 20 20 19 18 18 17 14 12 14 31 54 57 55 62 68 73 77 81 85 80 74 73 71 73 74 69 68 71 71 68 65 68 72 73 75 74 71 70 68 62
10 8 6 5 6 7 8 10 14 19 21 21 21 22 21 24 31 31 22 17 15 14 13 13 14 13 14 14 14 15 16 18 20 20 21 22 23 23 22 22 23 25 26 25 23 24 22 21 22 21 20 19 19 18 16 13 13 29 49 53 57 69 75 74 76 83 88 81 70 70 71 75 75 68 66 67 66 66 66 67 69 70 72 74 74 72 71 68
10 8 6 6 6 7 8 11 15 19 21 24 24 23 26 26 26 26 21 17 15 14 14 14 14 14 14 14 14 15 17 18 20 21 22 23 24 23 22 24 26 26 26 25 24 24 23 23 24 23 21 21 20 20 19 16 16 25 38 46 61 77 78 77 80 84 86 78 70 72 76 78 73 64 64 67 66 66 67 66 68 69 71 74 76 75 72 69
10 9 7 6 6 7 7 11 16 18 22 25 24 25 31 28 21 22 22 17 13 13 14 13 14 15 15 15 15 16 17 19 20 22 22 23 24 23 22 23 24 25 25 25 26 27 27 27 25 24 23 22 21 21 20 19 21 26 30 38 59 79 83 82 81 79 78 72 68 72 77 76 67 61 67 70 67 66 66 65 66 68 70 72 75 78 75 72
10 10 8 6 7 7 8 12 16 19 23 25 25 27 28 23 20 22 21 15 14 14 13 14 16 16 16 17 16 16 18 19 21 23 25 25 25 23 24 23 22 23 26 27 28 29 31 31 29 27 26 25 23 22 22 21 23 27 30 34 47 64 74 77 76 75 74 73 74 77 77 74 65 62 69 71 68 69 67 64 65 65 68 71 74 78 77 75
10 11 9 7 7 7 8 11 15 19 22 25 30 31 26 23 24 23 19 15 15 14 14 15 17 17 18 18 18 18 19 19 21 24 26 28 26 25 25 24 23 24 25 27 28 29 31 32 32 30 28 27 27 25 24 23 25 27 30 35 43 52 60 66 68 65 65 75 84 81 73 70 64 61 66 68 68 71 70 66 65 65 66 69 73 77 77 77
10 11 10 8 8 8 9 11 14 19 22 28 33 31 28 26 23 20 18 16 15 15 16 17 17 18 19 19 19 19 19 20 22 24 26 28 28 26 27 26 25 25 26 27 28 29 32 34 34 33 31 29 29 30 27 26 29 31 31 36 42 47 52 60 66 62 56 61 69 70 70 68 63 59 65 69 69 72 74 70 66 65 65 67 71 74 75 76
10 11 10 9 9 9 10 11 14 18 23 30 34 30 29 27 21 19 19 17 15 16 17 18 17 18 18 19 20 20 19 20 23 25 26 28 28 27 27 28 27 27 27 28 27 28 32 35 37 35 34 32 30 32 31 28 31 33 34 35 36 42 48 56 67 68 59 53 55 64 71 69 67 65 65 70 72 71 75 73 69 65 64 66 70 72 73 73
10 12 12 11 10 11 13 13 14 18 24 33 36 34 31 26 22 20 18 15 15 16 18 19 18 18 19 19 20 20 19 20 23 26 27 27 27 26 26 27 29 28 28 27 28 28 30 35 39 37 36 37 34 33 35 33 31 32 37 36 33 40 49 51 59 65 65 60 57 63 68 68 72 74 71 75 76 75 77 77 73 69 66 67 70 72 73 73
11 14 15 13 12 13 15 14 15 18 23 30 36 35 30 26 24 21 17 15 15 15 16 18 18 18 19 20 19 19 20 20 23 26 27 26 26 25 25 26 28 29 28 28 29 31 31 34 40 39 36 38 38 38 39 40 36 33 37 40 37 41 47 48 51 55 59 61 61 61 63 68 74 76 78 81 81 81 81 79 76 72 70 70 71 75 76 76
13 16 17 15 14 15 15 15 17 20 23 28 34 34 28 25 23 20 18 16 14 14 16 17 17 17 18 19 19 19 20 21 23 23 25 25 24 24 24 24 26 29 30 30 30 33 34 34 38 41 39 39 41 41 41 41 42 39 39 44 46 45 45 43 43 47 51 58 64 62 60 68 74 74 78 82 83 84 82 80 78 75 76 76 76 78 79 79
16 18 19 17 16 17 17 18 19 22 26 30 33 32 28 24 23 22 20 17 15 13 15 17 18 17 18 19 19 19 20 22 22 22 23 24 23 23 23 23 25 28 31 33 32 32 34 34 37 42 43 41 41 41 41 41 43 44 44 47 48 48 48 44 38 42 45 49 59 61 61 71 76 73 75 79 81 81 80 79 79 78 79 80 80 79 80 80
17 21 23 20 19 19 20 22 23 23 27 31 30 29 28 26 25 24 21 18 17 15 16 19 18 17 19 19 19 20 22 23 22 22 22 23 23 23 22 22 24 27 30 33 33 32 35 38 40 42 45 45 43 42 43 43 42 44 46 47 47 49 54 52 42 39 40 45 53 60 66 74 74 71 74 77 77 79 80 80 79 79 80 80 82 81 80 81
18 23 25 23 22 22 23 26 26 22 26 30 28 27 28 27 26 25 22 20 18 17 18 19 18 18 18 18 19 20 21 22 22 21 22 23 24 23 23 23 23 25 27 30 32 33 36 38 38 42 50 52 47 44 45 45 46 47 47 47 48 51 56 55 49 43 42 47 50 57 69 75 71 71 73 73 74 78 80 80 78 80 81 80 84 84 82 83
23 28 29 27 27 26 26 29 27 25 28 29 28 29 30 28 27 25 23 21 19 18 19 19 18 17 17 18 19 20 21 21 21 22 22 23 24 24 24 24 24 25 25 27 29 29 31 36 39 43 52 54 50 49 48 45 48 52 51 49 50 54 56 53 50 47 49 55 53 54 72 80 73 71 74 73 73 74 76 78 77 77 78 79 82 83 82 84
28 34 33 31 31 29 29 30 28 27 29 29 30 34 33 30 28 25 23 21 20 20 20 20 19 18 18 19 20 20 21 21 21 22 23 23 24 25 25 25 26 26 25 26 28 27 28 35 41 44 49 50 50 53 52 49 49 52 53 55 54 57 62 59 52 49 55 65 63 60 73 83 76 73 76 74 73 73 73 75 74 73 74 76 78 77 79 82
31 37 38 37 36 32 32 33 30 30 30 32 36 39 35 31 29 26 23 21 21 22 22 22 21 21 20 20 21 21 20 21 22 23 23 24 25 25 25 26 28 28 28 27 27 30 33 36 41 47 50 48 46 49 51 50 52 52 55 59 58 59 65 67 64 63 65 72 74 69 72 78 79 78 78 75 72 71 69 69 71 71 70 72 74 74 76 79
34 40 44 43 39 37 38 38 36 35 33 36 40 39 35 34 31 27 23 22 23 24 24 23 21 21 21 21 22 22 22 23 23 23 24 25 27 26 25 25 26 27 29 28 25 30 34 32 36 44 46 45 45 46 46 47 50 53 58 63 62 60 66 71 73 73 72 73 77 77 73 74 77 77 76 75 71 67 66 67 69 70 69 71 73 73 74 75
38 42 46 45 44 44 43 42 41 40 37 38 43 41 36 35 32 28 25 23 24 24 24 24 23 22 22 22 23 24 24 25 24 24 25 27 28 27 25 24 24 23 26 26 25 30 32 28 29 32 34 38 41 42 43 46 48 53 59 65 64 62 66 72 76 77 76 76 80 81 77 75 75 73 73 74 71 68 68 70 72 71 69 71 73 73 74 73
42 45 46 46 47 48 47 45 45 43 40 43 47 43 39 36 33 30 27 24 26 26 25 25 26 25 24 25 26 25 25 25 24 25 27 27 27 27 24 23 22 20 22 24 25 27 28 29 30 30 30 33 36 37 41 45 49 53 56 62 66 64 64 69 72 72 76 83 87 85 81 78 74 71 71 73 73 72 73 75 75 72 69 69 72 73 75 75
43 45 46 47 48 49 50 50 49 47 43 44 46 44 41 39 34 32 30 27 27 28 27 27 28 28 28 30 29 25 25 26 24 24 26 26 26 27 26 23 20 20 22 22 22 21 22 27 34 35 33 33 35 38 40 43 49 52 54 59 66 67 66 67 67 65 71 82 89 89 87 83 77 72 72 74 74 75 76 76 74 72 69 69 70 72 74 76
44 42 44 48 49 50 51 51 51 50 47 46 47 47 46 42 37 34 32 30 28 29 29 29 30 29 29 31 31 26 26 27 25 24 24 23 23 25 24 21 19 20 21 20 19 19 20 24 30 35 36 34 36 41 43 43 45 49 52 58 65 67 67 67 67 67 69 77 83 87 88 84 78 74 73 75 75 75 75 73 72 71 70 69 69 70 71 75
48 45 46 49 48 48 51 53 52 50 48 48 48 49 49 46 40 37 34 31 29 29 30 30 32 32 31 31 32 30 28 27 25 23 21 21 21 20 18 18 17 16 19 21 18 20 25 26 25 29 33 33 36 43 46 44 44 50 55 57 61 65 67 68 70 69 71 75 79 81 84 83 78 73 73 73 73 73 72 70 69 70 70 69 69 70 70 72